STARLINK-36103 (66985 NORAD) Tracking and Keplerian Element Data

This shows tracking and keplerian element data for the satellite.

Feedback or suggestion? Click here.




ElementValue
Catalog66985
NameSTARLINK-36103
Epoch Orbit303
Epoch Day354.25003472
Epoch Year2025
RAAN121.0359
Inclination43.0017
Eccentricity0.0001619
Argument of Perigee273.3013
Mean Anonmoly142.8529
Mean Motion15.80781432
Decay Rate-0.01605719
L11 66985U 25288AC 25354.25003472 -.01605719 00000+0 -92469-2 0 9993
L22 66985 43.0017 121.0359 0001619 273.3013 142.8529 15.80781432 3034



Live tracking and technical data element details for STARLINK-36103 (NORAD 66985). STARLINK-36103 can be tracked NOW for your location showing map with azimuth and elevation plus other details from your city location.







IsCatalogInMostPopularTable: catalog: 66985, numindb: 16
Update: records affected: 1



GetName: 66985 STARLINK-36103

Hit Count: updated at: Fri, 16 Jan 2026 10:16:31 GMT